Regional Weather Roundup
Issued by NWS

Home | Current Version | Previous Version | Text Only | Print | Product List | Glossary Off
Versions: 1 2 3 4 5 6 7 8 9 10 11 12 13 14 15 16 17 18 19 20 21 22 23 24 25 26 27 28 29 30 31 32 33 34 35 36 37 38 39 40 41 42 43 44 45 46 47 48 49 50

000
ASUS43 KMKX 241720
RWRWI

WISCONSIN REGIONAL WEATHER ROUNDUP
NATIONAL WEATHER SERVICE MILWAUKEE/SULLIVAN WI
1200 PM CDT TUE APR 24 2018

NOTE: "FAIR" INDICATES FEW OR NO CLOUDS BELOW 12,000 FEET WITH NO
SIGNIFICANT WEATHER AND/OR OBSTRUCTIONS TO VISIBILITY.

WIZ001-002-006>008-014>016-023>028-241800-
NORTHWEST WISCONSIN

CITY           SKY/WX    TMP DP  RH WIND       PRES   REMARKS
SUPERIOR ARPT  PTSUNNY   47  31  52 NE6       30.24S
ASHLAND        FAIR      50  30  46 NE10      30.22R
HAYWARD        FAIR      56  33  42 NE12      30.18S
SIREN          FAIR      61  28  29 N9G24     30.18S
CUMBERLAND     FAIR      54  30  40 N12       30.16S
RICE LAKE      FAIR      59  33  37 N15       30.16F
CHETEK         FAIR      59  36  41 N10G16    30.14R
LADYSMITH      PTSUNNY   61  34  35 N15       30.15R
EAU CLAIRE     PTSUNNY   68  38  33 N9        30.10S
MENOMONIE      CLOUDY    66  34  30 NW17      30.11S
NEW RICHMOND   FAIR      60  31  33 NE17      30.16R
OSCEOLA        FAIR      61  32  33 N12G22    30.19S
$$

WIZ003>005-009-010-017-018-241800-
NORTH CENTRAL WISCONSIN

CITY           SKY/WX    TMP DP  RH WIND       PRES   REMARKS
MANITOWISH WTR FAIR      54  30  41 N9G17     30.14R
ARBOR VITAE    FAIR      57  33  40 N8        30.13R
WOODRUFF       FAIR      57  33  40 N8        30.13R
RHINELANDER    FAIR      61  33  35 VRB5      30.10S
EAGLE RIVER    FAIR      56  30  37 N10       30.11S
LAND O LAKES   PTSUNNY   54  31  41 N12       30.14S
PHILLIPS       FAIR      58  33  38 N12G17    30.13R
TOMAHAWK       FAIR      62  33  33 W7        30.11R
MEDFORD        FAIR      64  37  37 NE5       30.08F
MERRILL        FAIR      66  36  32 NW6       30.08F
$$

WIZ029-030-035-036-043>047-241800-
CENTRAL WISCONSIN

CITY           SKY/WX    TMP DP  RH WIND       PRES   REMARKS
WAUSAU         FAIR      66  31  27 NW7       30.05F
MOSINEE        MOSUNNY   64  28  25 VRB3      30.09F
MARSHFIELD     FAIR      66  33  29 NW5       30.07F
STEVENS POINT  FAIR      65  29  26 N8        30.07F
WAUPACA        FAIR      67  28  22 N7        30.07F
WAUTOMA        FAIR      67  28  23 N10       30.06F
WISC RAPIDS    FAIR      68  30  24 N6        30.08F
CAMP DOUGLAS   MOSUNNY   68  34  28 CALM      30.07F
$$

WIZ011>013-019>022-031-037>040-048>050-241800-
NORTHEAST WISCONSIN

CITY           SKY/WX    TMP DP  RH WIND       PRES   REMARKS
ANTIGO         FAIR      62  32  32 E5        30.08F
SHAWANO        FAIR      66  32  28 E5        30.07S
OCONTO         FAIR      60  29  30 SE7       30.07F
STURGEON BAY   FAIR      59  30  33 SE8       30.08F
GREEN BAY      FAIR      60  32  34 NE8       30.08S
MANITOWOC      CLOUDY    55  43  63 SE7       30.08F
APPLETON       MOSUNNY   63  28  27 N3        30.05F
CLINTONVILLE   PTSUNNY   63  27  25 NE3       30.06F
OSHKOSH        FAIR      60  32  34 NE10      30.06F
$$

WIZ032>034-041-042-053>061-241800-
SOUTHWEST WISCONSIN

CITY           SKY/WX    TMP DP  RH WIND       PRES   REMARKS
LA CROSSE      FAIR      67  35  30 NW8       30.09F
SPARTA         FAIR      68  32  26 W3        30.09S
VIROQUA        FAIR      66  35  32 NE9       30.09S
BOSCOBEL       FAIR      71  31  22 VRB5      30.07F
PRAIRIE DU CHI FAIR      68  27  21 NW10      30.08F
PLATTEVILLE    FAIR      67  30  25 N14G20    30.07F
$$

WIZ056-057-062-063-064-067-068-241800-
SOUTH CENTRAL WISCONSIN

CITY           SKY/WX    TMP DP  RH WIND       PRES   REMARKS
REEDSBURG      FAIR      66  33  28 N6        30.06F
BARABOO/DELLS  FAIR      66  29  25 NE3       30.07S
LONE ROCK      FAIR      69  31  24 N8        30.06F
MINERAL POINT  FAIR      68  27  21 N7        30.07F
MADISON        FAIR      65  31  28 N9        30.06F
MIDDLETON      FAIR      67  28  23 NE5       30.07S
WATERTOWN      FAIR      63  32  31 N6        30.05F
MONROE         FAIR      64  21  19 NE9G20    30.05F
JANESVILLE     MOSUNNY   68  25  19 N12       30.05F
$$

WIZ051-052-058>065-066-070>072-241800-
SOUTHEAST WISCONSIN

CITY           SKY/WX    TMP DP  RH WIND       PRES   REMARKS
MILWAUKEE      FAIR      55  36  48 NE8       30.07F
WAUKESHA       SUNNY     63  32  31 NE3       30.06F
MILWAUKEE/TIMM SUNNY     61  30  31 E6        30.06F
RACINE         FAIR      56  36  47 N10       30.08S
BURLINGTON     FAIR      62  43  50 CALM      30.05S
KENOSHA        FAIR      62  46  55 VRB5      30.05F
FOND DU LAC    FAIR      60  33  36 N8        30.06F
SHEBOYGAN      FAIR      53  43  68 NE9       30.06F
WEST BEND      FAIR      64  28  25 N5        30.05F
JUNEAU         FAIR      62  29  28 N7        30.07F
$$

LSZ147-162-241800-
LAKE SUPERIOR

STATION/POSITION TIME  TEMP    WIND        PRES    WAVE
                       AIR SEA DIR/SP/G            HT/PER
                 (UTC) (F)     (DEG/KT/KT) (MB)    (FT/S)
DEVILS ISLAND    1700   43      60/  8/  8 1024.0R
SAXON HARBOR     1630   38     310/  7/  8 1022.7F
$$

LMZ867-665-643>646-241800-
LAKE MICHIGAN

STATION/POSITION TIME  TEMP    WIND        PRES    WAVE
                       AIR SEA DIR/SP/G            HT/PER
                 (UTC) (F)     (DEG/KT/KT) (MB)    (FT/S)
NORTHPORT PIER   1640   40                 1018.6F
KEWAUNEE LAKESHO 1654   45      40/  5/  7 1018.1F
SHEBOYGAN LAKESH 1700   38      20/  7/  8 1018.8S
PORT WASHINGTON  1640   43     120/  3/  4 1019.3S
MILWAUKEE LAKESH 1700   41      40/  6/  7   N/A
KENOSHA   LAKESH 1700   43                 1018.3
$$

TC  - TEMPERATURE IN CELSIUS
VSB - VISIBILITY IN STATUTE MILES
WCI - WIND CHILL INDEX
HX  - HEAT INDEX




USA.gov is the U.S. government's official web portal to all federal, state and local government web resources and services.